Weather History for Idabel, OK

Change the Weather History Date:

Friday, May 11, 2012

  Actual Average (KDEQ) Record (KDEQ)
Temperature  
Mean Temperature 68 °F 68 °F  
Max Temperature 77 °F 80 °F 93 °F (1967)
Min Temperature 60 °F 57 °F 39 °F (1981)
Degree Days  
Heating Degree Days 0 1  
Month to date heating degree days 17  
Since 1 July heating degree days 3038  
Cooling Degree Days 4 4  
Month to date cooling degree days 39  
Year to date cooling degree days 86  
Growing Degree Days 18 (Base 50)    
Moisture  
Dew Point 56 °F    
Average Humidity 73    
Maximum Humidity 88    
Minimum Humidity 54    
Precipitation  
Precipitation 0.04 in 0.19 in 3.38 in (1953)
Month to date precipitation 2.43  
Year to date precipitation 18.00  
Snow  
Snow 0.00 in - - ()
Month to date snowfall  
Since 1 July snowfall  
Snow Depth -    
Sea Level Pressure  
Sea Level Pressure 29.95 in    
Wind  
Wind Speed 9 mph (East)    
Max Wind Speed 17 mph    
Max Gust Speed 25 mph    
Visibility 10 miles    
Events      
T = Trace of Precipitation, MM = Missing Value Source: NWS Daily Summary

Daily Weather History Graph

Daily Weather History Graph

Search for Another Location

Airport:

Trip Planner

Search our weather history database for the weather conditions in past years. The results will help you decide how hot, cold, wet, or windy it might be!

Date:

Astronomy

May. 11, 2012 Rise Set
Actual Time 6:20 AM CDT 8:11 PM CDT
Civil Twilight 5:53 AM CDT 8:38 PM CDT
Nautical Twilight 5:20 AM CDT 9:11 PM CDT
Astronomical Twilight 4:45 AM CDT 9:47 PM CDT
Moon 12:53 AM CDT (5/11) 11:51 AM CDT (5/11)
Length of Visible Light 14h 45m
Length of Day
13h 50m
Waning Gibbous, 63% of the Moon is Illuminated
May 11
Waning Gibbous
May 12
Last Quarter
May 20
New
May 28
First Quarter
Jun 4
Full

Hourly Weather History & Observations

Time (CDT) Temp. Dew Point Humidity Pressure Visibility Wind Dir Wind Speed Gust Speed Precip Events Conditions
12:15 AM 62.6 °F 51.8 °F 68% 29.93 in 10.0 mi East 5.8 mph - N/A   Clear
12:35 AM 62.6 °F 51.8 °F 68% 29.92 in 10.0 mi East 4.6 mph - N/A   Clear
12:55 AM 62.6 °F 53.6 °F 72% 29.93 in 10.0 mi East 5.8 mph - N/A   Clear
1:15 AM 62.6 °F 53.6 °F 72% 29.93 in 10.0 mi ENE 5.8 mph - N/A   Clear
1:35 AM 62.6 °F 53.6 °F 72% 29.93 in 10.0 mi ENE 5.8 mph - N/A   Clear
1:55 AM 62.6 °F 53.6 °F 72% 29.92 in 10.0 mi East 6.9 mph - N/A   Clear
2:15 AM 62.6 °F 53.6 °F 72% 29.91 in 10.0 mi ENE 8.1 mph - N/A   Clear
2:35 AM 62.6 °F 53.6 °F 72% 29.90 in 10.0 mi East 6.9 mph - N/A   Clear
2:55 AM 62.6 °F 53.6 °F 72% 29.91 in 10.0 mi East 8.1 mph - N/A   Scattered Clouds
3:15 AM 62.6 °F 53.6 °F 72% 29.91 in 10.0 mi East 6.9 mph - N/A   Scattered Clouds
3:35 AM 62.6 °F 53.6 °F 72% 29.91 in 10.0 mi East 6.9 mph - N/A   Scattered Clouds
3:55 AM 62.6 °F 51.8 °F 68% 29.91 in 10.0 mi East 8.1 mph - N/A   Scattered Clouds
4:15 AM 62.6 °F 51.8 °F 68% 29.91 in 10.0 mi East 8.1 mph - N/A   Clear
4:35 AM 60.8 °F 51.8 °F 72% 29.91 in 10.0 mi East 8.1 mph - N/A   Clear
4:55 AM 60.8 °F 51.8 °F 72% 29.91 in 10.0 mi East 9.2 mph - N/A   Clear
5:15 AM 60.8 °F 51.8 °F 72% 29.90 in 10.0 mi East 8.1 mph - N/A   Clear
5:35 AM 60.8 °F 51.8 °F 72% 29.91 in 10.0 mi East 8.1 mph - N/A   Clear
5:55 AM 60.8 °F 51.8 °F 72% 29.90 in 10.0 mi ENE 8.1 mph - N/A   Clear
6:15 AM 60.8 °F 51.8 °F 72% 29.91 in 10.0 mi East 8.1 mph - N/A   Clear
6:35 AM 60.8 °F 51.8 °F 72% 29.90 in 10.0 mi East 9.2 mph - N/A   Clear
6:55 AM 60.8 °F 51.8 °F 72% 29.90 in 10.0 mi ENE 9.2 mph - N/A   Clear
7:15 AM 60.8 °F 51.8 °F 72% 29.92 in 10.0 mi East 9.2 mph - N/A   Clear
7:35 AM 60.8 °F 53.6 °F 77% 29.92 in 10.0 mi ENE 8.1 mph - N/A   Scattered Clouds
7:55 AM 60.8 °F 53.6 °F 77% 29.93 in 10.0 mi East 8.1 mph - N/A   Scattered Clouds
8:15 AM 60.8 °F 53.6 °F 77% 29.93 in 10.0 mi ENE 8.1 mph - N/A   Clear
8:35 AM 60.8 °F 53.6 °F 77% 29.93 in - ENE 8.1 mph - N/A   Clear
8:55 AM 60.8 °F 53.6 °F 77% 29.94 in - East 8.1 mph - N/A   Scattered Clouds
9:15 AM 60.8 °F 53.6 °F 77% 29.95 in - ENE 8.1 mph - N/A   Scattered Clouds
9:35 AM 60.8 °F 53.6 °F 77% 29.96 in 10.0 mi East 6.9 mph - N/A   Clear
9:55 AM 62.6 °F 53.6 °F 72% 29.96 in 10.0 mi ENE 9.2 mph - N/A   Clear
10:15 AM 62.6 °F 53.6 °F 72% 29.97 in 10.0 mi East 10.4 mph - N/A   Clear
10:35 AM 64.4 °F 55.4 °F 73% 29.97 in - East 6.9 mph - N/A   Clear
10:55 AM 66.2 °F 55.4 °F 68% 29.97 in 10.0 mi ENE 10.4 mph - N/A   Clear
11:15 AM 68.0 °F 55.4 °F 64% 29.98 in - East 9.2 mph 16.1 mph N/A   Clear
11:35 AM 68.0 °F 55.4 °F 64% 29.98 in - East 11.5 mph - N/A   Clear
11:55 AM 68.0 °F 55.4 °F 64% 29.98 in - East 10.4 mph - N/A   Clear
12:15 PM 68.0 °F 55.4 °F 64% 29.98 in - ENE 10.4 mph - N/A   Clear
12:35 PM 69.8 °F 57.2 °F 64% 29.98 in 10.0 mi East 11.5 mph - N/A   Clear
12:55 PM 69.8 °F 57.2 °F 64% 29.97 in - East 15.0 mph 19.6 mph N/A   Clear
1:15 PM 73.4 °F 57.2 °F 57% 29.97 in - East 16.1 mph 24.2 mph N/A   Clear
1:35 PM 73.4 °F 59.0 °F 61% 29.96 in - ESE 15.0 mph 23.0 mph N/A   Clear
1:55 PM 73.4 °F 59.0 °F 61% 29.96 in 10.0 mi East 15.0 mph 24.2 mph N/A   Clear
2:15 PM 75.2 °F 59.0 °F 57% 29.96 in 10.0 mi ESE 12.7 mph 25.3 mph N/A   Scattered Clouds
2:35 PM 77.0 °F 59.0 °F 54% 29.95 in - SE 17.3 mph 24.2 mph N/A   Scattered Clouds
2:55 PM 73.4 °F 57.2 °F 57% 29.96 in - East 11.5 mph 21.9 mph N/A   Scattered Clouds
3:15 PM 73.4 °F 59.0 °F 61% 29.96 in 10.0 mi ESE 16.1 mph 21.9 mph N/A   Mostly Cloudy
3:35 PM 71.6 °F 59.0 °F 64% 29.95 in - ESE 15.0 mph 20.7 mph N/A   Scattered Clouds
3:55 PM 68.0 °F 60.8 °F 78% 29.96 in 7.0 mi ESE 13.8 mph 20.7 mph 0.02 in   Mostly Cloudy
4:15 PM 68.0 °F 62.6 °F 83% 29.96 in 10.0 mi ESE 9.2 mph - N/A   Mostly Cloudy
4:35 PM 68.0 °F 62.6 °F 83% 29.94 in 10.0 mi East 10.4 mph - N/A   Scattered Clouds
4:55 PM 69.8 °F 62.6 °F 78% 29.94 in - East 11.5 mph - N/A   Scattered Clouds
5:15 PM 71.6 °F 60.8 °F 69% 29.94 in 10.0 mi East 11.5 mph - N/A   Scattered Clouds
5:35 PM 71.6 °F 60.8 °F 69% 29.94 in - East 9.2 mph - N/A   Clear
5:55 PM 69.8 °F 60.8 °F 73% 29.95 in 10.0 mi East 5.8 mph - N/A   Mostly Cloudy
6:15 PM 69.8 °F 60.8 °F 73% 29.96 in 10.0 mi East 9.2 mph - N/A   Scattered Clouds
6:35 PM 68.0 °F 60.8 °F 78% 29.96 in 10.0 mi ESE 10.4 mph - N/A   Mostly Cloudy
6:55 PM 68.0 °F 59.0 °F 73% 29.96 in 10.0 mi East 13.8 mph - N/A   Scattered Clouds
7:15 PM 68.0 °F 59.0 °F 73% 29.96 in 10.0 mi East 10.4 mph - N/A   Clear
7:35 PM 68.0 °F 60.8 °F 78% 29.97 in 10.0 mi East 6.9 mph - 0.01 in   Mostly Cloudy
7:55 PM 64.4 °F 60.8 °F 88% 29.97 in 10.0 mi East 10.4 mph - 0.02 in   Mostly Cloudy
8:15 PM 64.4 °F 59.0 °F 83% 29.98 in 10.0 mi East 10.4 mph 16.1 mph N/A   Mostly Cloudy
8:35 PM 64.4 °F 59.0 °F 83% 29.97 in 10.0 mi East 10.4 mph - N/A   Mostly Cloudy
8:55 PM 62.6 °F 59.0 °F 88% 29.98 in 10.0 mi East 10.4 mph 19.6 mph N/A   Scattered Clouds
9:15 PM 62.6 °F 59.0 °F 88% 29.99 in 10.0 mi East 9.2 mph - N/A   Clear
9:55 PM 62.6 °F 59.0 °F 88% 30.01 in 10.0 mi ESE 11.5 mph - N/A   Scattered Clouds
10:15 PM 62.6 °F 59.0 °F 88% 30.03 in 10.0 mi ESE 9.2 mph 18.4 mph N/A   Mostly Cloudy
10:35 PM 62.6 °F 59.0 °F 88% 30.04 in 10.0 mi ESE 10.4 mph 20.7 mph N/A   Mostly Cloudy
10:55 PM 62.6 °F 57.2 °F 82% 30.05 in 10.0 mi ESE 10.4 mph 17.3 mph N/A   Overcast
11:15 PM 62.6 °F 57.2 °F 82% 30.05 in 10.0 mi East 10.4 mph - N/A   Overcast
11:35 PM 62.6 °F 55.4 °F 77% 30.05 in 10.0 mi ESE 9.2 mph - N/A   Overcast
11:55 PM 62.6 °F 55.4 °F 77% 30.06 in 10.0 mi ESE 10.4 mph - N/A   Overcast